Total_Precipitation_Accumulation
0.93 1.00 1.07 1.09 1.18 1.33 1.45 1.47 1.46 1.42 1.38 1.35 1.29 1.23 1.18 1.11 1.07 1.06 1.05 1.09 1.16 1.17 1.20 1.22 1.18 1.15 1.22 1.25 1.31 1.38 1.47 1.59 1.54 1.09 0.88 0.84 0.85 0.82 0.80 0.75 0.70 0.68 0.66
0.91 0.94 1.00 1.01 1.01 1.09 1.19 1.31 1.39 1.46 1.36 1.31 1.26 1.20 1.13 1.09 1.05 1.02 0.99 0.97 1.01 1.06 1.09 1.14 1.12 1.08 1.10 1.13 1.18 1.18 1.19 1.23 1.31 1.14 0.85 0.76 0.74 0.70 0.69 0.68 0.66 0.63 0.57
0.83 0.85 0.87 0.88 0.87 0.91 0.97 1.09 1.17 1.28 1.28 1.23 1.23 1.16 1.06 1.02 1.00 0.97 0.93 0.93 0.94 0.94 0.97 1.05 1.10 1.12 1.13 1.13 1.13 1.12 1.11 1.13 1.21 1.21 0.95 0.76 0.71 0.69 0.70 0.67 0.65 0.65 0.60
0.76 0.82 0.83 0.80 0.79 0.83 0.91 0.96 1.02 1.07 1.16 1.16 1.15 1.19 1.17 1.09 1.06 1.03 0.98 0.94 0.95 0.95 0.95 1.00 1.06 1.08 1.05 1.03 1.05 1.03 1.05 1.11 1.14 1.19 1.11 0.93 0.79 0.70 0.75 0.76 0.75 0.69 0.68
0.69 0.79 0.82 0.83 0.86 0.95 0.97 0.93 0.94 0.96 1.02 1.07 1.09 1.13 1.15 1.15 1.12 1.11 1.08 1.06 1.07 1.09 1.05 1.02 1.03 1.08 1.07 1.03 1.02 1.02 1.05 1.12 1.21 1.27 1.19 1.02 0.87 0.78 0.73 0.69 0.76 0.75 0.74
0.56 0.64 0.72 0.79 0.86 0.95 1.00 0.98 0.94 0.91 0.96 1.04 1.04 1.09 1.16 1.18 1.32 1.29 1.19 1.15 1.14 1.11 1.05 0.97 0.95 0.99 1.00 1.04 1.05 1.05 1.11 1.21 1.32 1.37 1.29 1.10 0.86 0.78 0.79 0.90 1.01 1.12 1.05
0.47 0.51 0.61 0.76 0.83 0.87 0.92 0.96 0.96 0.96 1.05 1.14 1.15 1.16 1.24 1.34 1.41 1.24 1.18 1.09 1.07 1.03 0.96 0.91 0.87 0.85 0.90 0.84 0.90 0.98 1.01 1.12 1.21 1.24 1.20 0.97 0.83 0.78 0.96 1.13 1.16 1.19 1.04
0.49 0.54 0.61 0.70 0.80 0.90 0.94 0.99 1.02 1.02 1.10 1.19 1.24 1.26 1.28 1.31 1.34 1.24 1.15 0.99 0.94 0.90 0.85 0.80 0.79 0.78 0.79 0.86 0.93 0.99 0.91 0.86 0.87 0.86 0.86 0.82 0.82 0.88 1.10 1.34 1.43 1.45 1.24
0.47 0.53 0.56 0.64 0.73 0.86 0.96 1.03 1.07 1.10 1.13 1.18 1.17 1.14 1.11 1.12 1.12 1.04 1.04 0.94 0.92 0.85 0.78 0.77 0.78 0.75 0.84 1.00 1.05 1.06 0.91 0.77 0.77 0.84 0.92 0.92 0.95 1.00 1.10 1.37 1.62 1.75 1.52
0.44 0.49 0.52 0.58 0.66 0.77 0.89 0.98 1.02 1.04 1.05 1.03 1.02 0.97 0.94 0.94 1.00 0.93 0.93 0.92 0.92 0.85 0.79 0.77 0.85 0.83 0.94 1.06 1.01 1.02 0.94 0.77 0.72 0.74 0.77 0.79 0.75 0.77 0.95 1.12 1.55 2.00 1.73
0.44 0.50 0.53 0.57 0.63 0.71 0.78 0.81 0.83 0.83 0.82 0.81 0.79 0.77 0.76 0.79 0.84 0.82 0.83 0.86 0.87 0.88 0.86 0.78 0.77 0.94 1.03 1.07 0.99 0.84 0.85 0.92 0.85 0.75 0.74 0.74 0.73 0.74 0.77 0.84 1.11 1.80 2.14
0.45 0.50 0.56 0.58 0.57 0.58 0.61 0.65 0.63 0.63 0.63 0.63 0.63 0.64 0.66 0.69 0.73 0.77 0.81 0.86 0.91 0.86 0.81 0.73 0.75 0.94 0.96 0.92 0.85 0.86 0.95 0.92 0.78 0.80 0.79 0.76 0.75 0.76 0.79 0.84 0.90 1.09 1.45
0.46 0.48 0.49 0.50 0.49 0.50 0.51 0.52 0.54 0.55 0.56 0.59 0.59 0.59 0.61 0.62 0.65 0.75 0.77 0.84 0.90 0.83 0.78 0.82 0.86 0.88 0.83 0.79 0.82 0.85 0.83 0.79 0.84 0.92 0.88 0.80 0.78 0.82 0.88 0.94 0.96 0.98 1.07
0.39 0.39 0.39 0.39 0.41 0.42 0.44 0.46 0.50 0.51 0.51 0.52 0.53 0.53 0.53 0.54 0.54 0.59 0.67 0.73 0.79 0.78 0.80 0.82 0.79 0.77 0.75 0.76 0.82 0.80 0.74 0.79 0.96 1.02 0.93 0.85 0.86 0.93 0.98 1.05 1.19 1.21 1.30
0.32 0.31 0.30 0.31 0.36 0.40 0.41 0.42 0.46 0.49 0.54 0.55 0.52 0.51 0.53 0.53 0.54 0.67 0.73 0.70 0.77 0.81 0.81 0.71 0.66 0.67 0.68 0.68 0.67 0.71 0.74 0.79 0.89 0.91 0.97 0.98 0.97 1.05 1.14 1.24 1.41 1.49 1.53
0.30 0.29 0.29 0.27 0.31 0.38 0.42 0.42 0.46 0.50 0.56 0.61 0.60 0.57 0.53 0.56 0.61 0.66 0.69 0.75 0.81 0.84 0.78 0.69 0.64 0.62 0.63 0.65 0.66 0.68 0.72 0.78 0.88 1.01 1.07 1.11 1.17 1.24 1.33 1.38 1.52 1.64 1.56
0.29 0.30 0.30 0.30 0.33 0.37 0.39 0.40 0.41 0.42 0.46 0.53 0.56 0.57 0.56 0.56 0.57 0.60 0.66 0.70 0.67 0.69 0.63 0.60 0.60 0.61 0.61 0.63 0.69 0.74 0.77 0.79 0.94 1.15 1.25 1.30 1.39 1.44 1.50 1.54 1.56 1.54 1.39
0.26 0.29 0.28 0.29 0.33 0.36 0.39 0.41 0.39 0.37 0.37 0.38 0.43 0.50 0.53 0.54 0.54 0.58 0.65 0.63 0.56 0.56 0.54 0.54 0.54 0.57 0.63 0.68 0.74 0.83 0.88 0.91 1.03 1.17 1.28 1.34 1.45 1.58 1.62 1.55 1.46 1.40 1.30
0.24 0.25 0.26 0.27 0.30 0.33 0.36 0.39 0.39 0.36 0.35 0.33 0.33 0.39 0.49 0.53 0.55 0.57 0.59 0.55 0.53 0.52 0.50 0.50 0.51 0.57 0.65 0.71 0.78 0.87 0.98 1.09 1.18 1.33 1.39 1.41 1.49 1.67 1.64 1.45 1.31 1.21 1.15
0.22 0.25 0.26 0.25 0.27 0.30 0.32 0.35 0.37 0.35 0.34 0.32 0.31 0.32 0.41 0.52 0.51 0.49 0.50 0.51 0.54 0.55 0.53 0.53 0.53 0.58 0.66 0.73 0.80 0.92 1.05 1.12 1.22 1.32 1.37 1.41 1.48 1.58 1.54 1.30 1.12 1.08 1.00
0.22 0.23 0.27 0.26 0.27 0.29 0.32 0.34 0.37 0.39 0.38 0.34 0.32 0.37 0.52 0.55 0.50 0.47 0.49 0.51 0.54 0.58 0.60 0.62 0.61 0.63 0.69 0.77 0.86 0.94 1.06 1.14 1.23 1.35 1.39 1.35 1.34 1.30 1.14 1.07 1.02 1.00 1.00
0.24 0.23 0.24 0.25 0.26 0.29 0.34 0.35 0.36 0.37 0.38 0.36 0.33 0.38 0.50 0.46 0.41 0.41 0.44 0.45 0.45 0.50 0.57 0.67 0.69 0.68 0.81 1.01 1.19 1.28 1.22 1.16 1.19 1.33 1.36 1.24 1.15 1.06 1.00 1.02 1.01 1.02 1.03
0.25 0.26 0.26 0.26 0.27 0.31 0.34 0.32 0.33 0.35 0.36 0.36 0.35 0.35 0.38 0.40 0.38 0.38 0.39 0.38 0.39 0.42 0.46 0.56 0.65 0.64 0.70 0.94 1.22 1.58 1.70 1.48 1.38 1.45 1.51 1.33 1.13 1.05 1.07 1.09 1.02 1.01 0.98
0.26 0.29 0.30 0.30 0.31 0.32 0.32 0.31 0.32 0.34 0.35 0.36 0.35 0.35 0.35 0.37 0.37 0.36 0.36 0.37 0.38 0.39 0.42 0.50 0.59 0.63 0.69 0.91 1.13 1.30 1.46 1.59 1.77 1.76 1.67 1.61 1.35 1.15 1.11 1.08 0.98 0.92 0.91
0.29 0.31 0.33 0.33 0.33 0.33 0.34 0.34 0.34 0.34 0.35 0.36 0.36 0.36 0.36 0.36 0.37 0.36 0.35 0.37 0.39 0.39 0.38 0.44 0.56 0.65 0.74 0.89 1.08 1.21 1.32 1.46 1.58 1.59 1.51 1.43 1.25 1.09 1.06 1.04 0.95 0.89 0.88
0.30 0.32 0.34 0.35 0.35 0.34 0.35 0.36 0.36 0.36 0.38 0.37 0.38 0.38 0.39 0.38 0.38 0.37 0.37 0.38 0.41 0.39 0.37 0.40 0.47 0.60 0.74 0.87 0.95 1.11 1.25 1.22 1.06 0.99 1.16 1.25 1.16 0.99 0.98 1.04 0.95 0.91 0.89